{"data":{"norad_id":59452,"epoch":"2026-05-25T02:26:49.801056Z","epoch_age_seconds":59436,"freshness":"FRESH","line1":"1 59452U 24066L   26145.10196529  .00002956  00000+0  26314-3 0  9994","line2":"2 59452  45.4122   3.8613 0007067 290.6924  69.3196 14.98364108116598","mean_motion":14.98364108,"eccentricity":0.0007067,"inclination_deg":45.4122,"raan_deg":3.8613,"arg_perigee_deg":290.6924,"mean_anomaly_deg":69.3196,"bstar":0.00026314,"rev_number":11659,"period_min":96.104811394748,"perigee_km":567.03878999141,"apogee_km":576.86204354627,"semimajor_km":6950.0874167688,"source":"CELESTRAK","updated_at":"2026-05-25T13:38:01.427186Z"}}